Peru, IL

3:17 AM CST on December 15, 2017 (GMT -0600)
Illinois Valley Regional-Duncan

Weather History for KVYS - October, 2010

Change the Weather History Date:

Tuesday, October 12, 2010

  Actual Average Record
Temperature  
Mean Temperature 66 °F -  
Max Temperature 81 °F 67 °F 87 °F (2008)
Min Temperature 51 °F 41 °F 24 °F (1988)
Cooling Degree Days 1    
Growing Degree Days 16 (Base 50)    
Moisture  
Dew Point 51 °F    
Average Humidity 66    
Maximum Humidity 92    
Minimum Humidity 31    
Precipitation  
Precipitation 0.00 in - - ()
Sea Level Pressure  
Sea Level Pressure 29.91 in    
Wind  
Wind Speed 3 mph (NNE)    
Max Wind Speed 8 mph    
Max Gust Speed -    
Visibility 8 miles    
Events      
Averages and records for this station are not official NWS values.
T = Trace of Precipitation, MM = Missing Value Source: NWS Daily Summary

Daily Weather History Graph

Daily Weather History Graph

Search for Another Location

Airport or City:

Trip Planner

Search our weather history database for the weather conditions in past years. The results will help you decide how hot, cold, wet, or windy it might be!

Date:

Astronomy

Oct. 12, 2010 Rise Set
Actual Time 7:05 AM CDT 6:20 PM CDT
Civil Twilight 6:37 AM CDT 6:48 PM CDT
Nautical Twilight 6:05 AM CDT 7:20 PM CDT
Astronomical Twilight 5:33 AM CDT 7:52 PM CDT
Moon 12:41 PM CDT (10/12) 9:53 PM CDT (10/12)
Length of Visible Light 12h 10m
Length of Day
11h 15m
Waxing Crescent, 29% of the Moon is Illuminated
Oct 12
Waxing Crescent
Oct 14
First Quarter
Oct 22
Full
Oct 30
Last Quarter
Nov 5
New

Hourly Weather History & Observations

Time (CDT) Temp. Dew Point Humidity Pressure Visibility Wind Dir Wind Speed Gust Speed Precip Events Conditions
12:03 AM 59.0 °F 52.0 °F 78% 29.87 in 10.0 mi ENE 4.6 mph - N/A   Clear
12:23 AM 58.3 °F 52.0 °F 80% 29.87 in 10.0 mi Calm Calm - N/A   Clear
12:43 AM 57.4 °F 51.6 °F 81% 29.87 in 10.0 mi NE 4.6 mph - N/A   Clear
1:03 AM 56.8 °F 51.8 °F 83% 29.87 in 7.0 mi NE 5.8 mph - N/A   Clear
1:23 AM 56.5 °F 52.0 °F 85% 29.88 in 7.0 mi Calm Calm - N/A   Clear
1:43 AM 55.6 °F 50.5 °F 83% 29.88 in 7.0 mi Calm Calm - N/A   Clear
2:03 AM 55.9 °F 51.4 °F 85% 29.88 in 7.0 mi Calm Calm - N/A   Clear
2:23 AM 55.4 °F 51.1 °F 85% 29.88 in 7.0 mi Calm Calm - N/A   Clear
2:43 AM 54.9 °F 50.9 °F 86% 29.88 in 7.0 mi Calm Calm - N/A   Clear
3:03 AM 54.9 °F 50.9 °F 86% 29.88 in 5.0 mi North 3.5 mph - N/A   Clear
3:23 AM 53.2 °F 49.8 °F 88% 29.87 in 5.0 mi NNE 5.8 mph - N/A   Clear
3:43 AM 51.8 °F 49.1 °F 90% 29.88 in 4.0 mi NNE 8.1 mph - N/A   Clear
4:03 AM 52.7 °F 50.0 °F 91% 29.88 in 4.0 mi NE 5.8 mph - N/A   Clear
4:23 AM 53.1 °F 50.4 °F 91% 29.88 in 4.0 mi NE 8.1 mph - N/A   Clear
4:43 AM 52.7 °F 50.0 °F 91% 29.89 in 4.0 mi ENE 5.8 mph - N/A   Clear
5:03 AM 52.9 °F 50.2 °F 91% 29.89 in 4.0 mi NE 8.1 mph - N/A   Clear
5:23 AM 52.7 °F 50.2 °F 91% 29.89 in 4.0 mi ENE 5.8 mph - N/A   Clear
5:43 AM 52.3 °F 49.6 °F 91% 29.89 in 4.0 mi ENE 4.6 mph - N/A   Clear
6:03 AM 52.7 °F 50.2 °F 91% 29.89 in 4.0 mi NE 5.8 mph - N/A   Clear
6:23 AM 52.3 °F 49.6 °F 91% 29.89 in 4.0 mi NE 5.8 mph - N/A   Clear
6:43 AM 52.7 °F 50.2 °F 91% 29.89 in 4.0 mi Calm Calm - N/A   Clear
7:03 AM 52.2 °F 49.5 °F 91% 29.89 in 3.0 mi ENE 3.5 mph - N/A   Clear
7:23 AM 52.7 °F 50.4 °F 92% 29.90 in 3.0 mi Calm Calm - N/A   Clear
7:43 AM 52.7 °F 50.0 °F 91% 29.91 in 3.0 mi Calm Calm - N/A   Clear
8:03 AM 54.0 °F 50.9 °F 89% 29.92 in 4.0 mi Calm Calm - N/A   Clear
8:23 AM 55.4 °F 51.8 °F 88% 29.92 in 5.0 mi Calm Calm - N/A   Clear
8:43 AM 57.2 °F 52.7 °F 85% 29.93 in 7.0 mi Calm Calm - N/A   Clear
9:03 AM 58.1 °F 53.2 °F 84% 29.93 in 7.0 mi ENE 4.6 mph - N/A   Clear
9:23 AM 59.9 °F 54.5 °F 82% 29.94 in 7.0 mi East 3.5 mph - N/A   Clear
9:43 AM 62.6 °F 55.4 °F 77% 29.94 in 10.0 mi SE 3.5 mph - N/A   Clear
10:03 AM 63.7 °F 55.6 °F 75% 29.94 in 10.0 mi SE 3.5 mph - N/A   Clear
10:22 AM 65.5 °F 56.1 °F 72% 29.94 in 10.0 mi South 3.5 mph - N/A   Clear
10:43 AM 66.2 °F 56.3 °F 70% 29.94 in 7.0 mi Calm Calm - N/A   Clear
11:03 AM 68.5 °F 56.8 °F 66% 29.94 in 7.0 mi Calm Calm - N/A   Clear
11:23 AM 70.2 °F 55.9 °F 61% 29.94 in 10.0 mi Calm Calm - N/A   Clear
11:43 AM 71.4 °F 55.8 °F 58% 29.94 in 10.0 mi Calm Calm - N/A   Clear
12:02 PM 72.7 °F 55.0 °F 54% 29.93 in 10.0 mi Calm Calm - N/A   Clear
12:23 PM 74.5 °F 55.2 °F 51% 29.93 in 10.0 mi Calm Calm - N/A   Clear
12:43 PM 75.6 °F 55.8 °F 50% 29.93 in 10.0 mi Calm Calm - N/A   Clear
1:03 PM 76.6 °F 54.7 °F 46% 29.92 in 7.0 mi Calm Calm - N/A   Clear
1:23 PM 78.1 °F 54.9 °F 45% 29.92 in 10.0 mi Calm Calm - N/A   Clear
1:43 PM 78.8 °F 53.4 °F 41% 29.91 in 10.0 mi WNW 4.6 mph - N/A   Clear
2:03 PM 79.5 °F 53.4 °F 40% 29.91 in 10.0 mi West 3.5 mph - N/A   Clear
2:23 PM 80.6 °F 51.6 °F 36% 29.90 in 10.0 mi NNW 5.8 mph - N/A   Clear
2:43 PM 80.8 °F 51.3 °F 36% 29.90 in 10.0 mi Calm Calm - N/A   Clear
3:03 PM 81.0 °F 49.8 °F 34% 29.90 in 10.0 mi North 3.5 mph - N/A   Clear
3:23 PM 81.1 °F 49.3 °F 33% 29.90 in 10.0 mi NNW 4.6 mph - N/A   Clear
3:43 PM 80.8 °F 48.7 °F 33% 29.90 in 10.0 mi North 4.6 mph - N/A   Clear
4:03 PM 81.1 °F 48.4 °F 32% 29.90 in 10.0 mi NNW 6.9 mph - N/A   Clear
4:23 PM 80.8 °F 48.6 °F 32% 29.90 in 10.0 mi NW 6.9 mph - N/A   Scattered Clouds
4:43 PM 80.8 °F 48.4 °F 32% 29.91 in 10.0 mi NW 6.9 mph - N/A   Scattered Clouds
5:03 PM 80.8 °F 47.8 °F 31% 29.91 in 10.0 mi NNW 8.1 mph - N/A   Clear
5:23 PM 80.4 °F 48.2 °F 32% 29.91 in 10.0 mi NNW 8.1 mph - N/A   Clear
5:43 PM 78.1 °F 48.4 °F 35% 29.91 in 10.0 mi NNW 6.9 mph - N/A   Clear
6:03 PM 76.1 °F 48.2 °F 37% 29.91 in 10.0 mi NNW 5.8 mph - N/A   Clear
6:23 PM 73.6 °F 48.4 °F 41% 29.91 in 10.0 mi NNW 5.8 mph - N/A   Clear
6:43 PM 73.6 °F 48.4 °F 41% 29.92 in 10.0 mi NNW 4.6 mph - N/A   Clear
7:03 PM 71.8 °F 48.6 °F 44% 29.92 in 10.0 mi NNW 4.6 mph - N/A   Clear
7:23 PM 69.4 °F 48.7 °F 48% 29.93 in 10.0 mi NW 4.6 mph - N/A   Clear
7:43 PM 69.8 °F 48.6 °F 47% 29.93 in 10.0 mi NNW 5.8 mph - N/A   Clear
8:03 PM 69.4 °F 48.9 °F 48% 29.93 in 10.0 mi North 5.8 mph - N/A   Clear
8:23 PM 67.8 °F 48.6 °F 50% 29.93 in 10.0 mi North 5.8 mph - N/A   Clear
8:43 PM 67.3 °F 48.4 °F 51% 29.94 in 10.0 mi North 4.6 mph - N/A   Clear
9:03 PM 65.8 °F 48.7 °F 54% 29.94 in 10.0 mi North 4.6 mph - N/A   Clear
9:23 PM 63.7 °F 48.6 °F 58% 29.95 in 10.0 mi North 8.1 mph - N/A   Clear
9:43 PM 63.3 °F 49.5 °F 61% 29.95 in 10.0 mi NE 6.9 mph - N/A   Clear
10:03 PM 62.8 °F 49.5 °F 62% 29.95 in 10.0 mi ENE 6.9 mph - N/A   Clear
10:23 PM 61.5 °F 50.0 °F 66% 29.96 in 10.0 mi ENE 5.8 mph - N/A   Clear
10:43 PM 62.1 °F 51.4 °F 68% 29.96 in 10.0 mi ENE 4.6 mph - N/A   Clear
11:03 PM 61.0 °F 51.6 °F 71% 29.96 in 10.0 mi East 3.5 mph - N/A   Clear
11:23 PM 60.6 °F 51.8 °F 73% 29.96 in 10.0 mi Calm Calm - N/A   Clear
11:43 PM 60.3 °F 52.2 °F 75% 29.97 in 10.0 mi Calm Calm - N/A   Clear